This is the latest recevied weather packets stored in our database for station/object JH5EWP-13. If no packets are shown the sender has not sent any weather packets the latest 10 day(s).
| Time | Temp. | Humidity | Pressure | Rain* | Wind** | Luminosity | Snow |
|---|---|---|---|---|---|---|---|
| 1777847025 | 17.78° C | 62% | 999.5 hPa | 0 mm | - | - | - |
| 1777846125 | 17.78° C | 64% | 999.1 hPa | 0 mm | - | - | - |
| 1777845225 | 16.67° C | 70% | 999.2 hPa | 0 mm | - | - | - |
| 1777844325 | 16.67° C | 70% | 998.4 hPa | 0 mm | - | - | - |
| 1777843424 | 16.11° C | 70% | 998.3 hPa | 0 mm | - | - | - |
| 1777842524 | 16.11° C | 70% | 998.2 hPa | 0 mm | - | - | - |
| 1777841624 | 16.11° C | 70% | 997.9 hPa | 0 mm | - | - | - |
| 1777840724 | 16.11° C | 70% | 997.8 hPa | 0 mm | - | - | - |
| 1777839826 | 16.11° C | 68% | 997.1 hPa | 0 mm | - | - | - |
| 1777838926 | 16.11° C | 68% | 997.2 hPa | 0 mm | - | - | - |
| 1777838026 | 16.11° C | 70% | 997.3 hPa | 0 mm | - | - | - |
| 1777837126 | 16.11° C | 68% | 997.1 hPa | 0 mm | - | - | - |
| 1777836226 | 16.67° C | 68% | 996.9 hPa | 0 mm | - | - | - |
| 1777835326 | 16.11° C | 74% | 996.9 hPa | 0 mm | - | - | - |
| 1777834425 | 16.11° C | 78% | 996.6 hPa | 0 mm | - | - | - |
| 1777833525 | 16.11° C | 76% | 996.7 hPa | 0 mm | - | - | - |
| 1777832625 | 16.11° C | 75% | 996.6 hPa | 0 mm | - | - | - |
| 1777831725 | 16.11° C | 75% | 996.7 hPa | 0 mm | - | - | - |
| 1777830825 | 16.11° C | 74% | 996.6 hPa | 0 mm | - | - | - |
| 1777829925 | 16.11° C | 77% | 996.7 hPa | 0 mm | - | - | - |
| 1777829025 | 16.67° C | 76% | 996.6 hPa | 0 mm | - | - | - |
| 1777828125 | 16.67° C | 76% | 996.2 hPa | 0 mm | - | - | - |
| 1777827224 | 16.67° C | 76% | 996.3 hPa | 0 mm | - | - | - |
| 1777826325 | 16.67° C | 77% | 996.1 hPa | 0 mm | - | - | - |
| 1777825425 | 16.67° C | 78% | 995.7 hPa | 0 mm | - | - | - |
* Rain latest hour (hover to see other rain measurements)
** Current wind speed in m/s (hover to see current wind gust speed)